Time,TemperatureF,DewpointF,PressureIn,WindDirection,WindDirectionDegrees,WindSpeedMPH,WindSpeedGustMPH,Humidity,HourlyPrecipIn,Conditions,Clouds,dailyrainin,SoftwareType,DateUTC
2013-03-19 00:01:00,42.4,37.5,29.73,ENE,68,0.0,0.0,83,0.00,,,0.00,WUHU216HW,2013-03-19 04:01:00,
2013-03-19 00:07:00,42.4,37.5,29.74,ENE,68,0.0,0.0,83,0.00,,,0.00,WUHU216HW,2013-03-19 04:07:00,
2013-03-19 00:12:00,42.4,37.5,29.74,ENE,68,0.0,0.0,83,0.00,,,0.00,WUHU216HW,2013-03-19 04:12:00,
2013-03-19 00:18:00,42.0,37.2,29.74,ENE,68,0.0,0.0,83,0.00,,,0.00,WUHU216HW,2013-03-19 04:18:00,
2013-03-19 00:23:00,42.0,37.2,29.74,ENE,68,0.0,0.0,83,0.00,,,0.00,WUHU216HW,2013-03-19 04:23:00,
2013-03-19 00:28:00,41.9,37.0,29.74,ENE,68,0.0,0.0,83,0.00,,,0.00,WUHU216HW,2013-03-19 04:28:00,
2013-03-19 00:38:00,41.7,36.8,29.74,ENE,68,0.0,0.0,83,0.00,,,0.00,WUHU216HW,2013-03-19 04:38:00,
2013-03-19 00:43:00,41.5,36.6,29.74,ENE,68,0.0,0.0,83,0.00,,,0.00,WUHU216HW,2013-03-19 04:43:00,
2013-03-19 00:49:00,41.5,36.6,29.73,ENE,68,0.0,0.0,83,0.00,,,0.00,WUHU216HW,2013-03-19 04:49:00,
2013-03-19 00:54:00,41.5,36.6,29.73,ENE,68,0.0,0.0,83,0.00,,,0.00,WUHU216HW,2013-03-19 04:54:00,
2013-03-19 00:59:00,41.3,36.5,29.73,ENE,68,0.0,0.0,83,0.00,,,0.00,WUHU216HW,2013-03-19 04:59:00,
2013-03-19 01:05:00,41.3,36.8,29.73,ENE,68,0.0,0.0,84,0.00,,,0.00,WUHU216HW,2013-03-19 05:05:00,
2013-03-19 01:10:00,41.5,37.3,29.73,ENE,68,0.0,0.0,85,0.00,,,0.00,WUHU216HW,2013-03-19 05:10:00,
2013-03-19 01:16:00,41.5,37.3,29.73,ENE,68,0.0,0.0,85,0.00,,,0.00,WUHU216HW,2013-03-19 05:16:00,
2013-03-19 01:22:00,41.5,37.3,29.73,ENE,68,0.0,0.0,85,0.00,,,0.00,WUHU216HW,2013-03-19 05:22:00,
2013-03-19 01:27:00,41.5,37.3,29.73,ENE,68,0.0,0.0,85,0.00,,,0.00,WUHU216HW,2013-03-19 05:27:00,
2013-03-19 01:32:00,41.5,37.6,29.73,ENE,68,0.0,0.0,86,0.00,,,0.00,WUHU216HW,2013-03-19 05:32:00,
2013-03-19 01:38:00,41.5,37.6,29.73,ENE,68,0.0,0.0,86,0.00,,,0.00,WUHU216HW,2013-03-19 05:38:00,
2013-03-19 01:43:00,41.5,37.6,29.73,ENE,68,0.0,0.0,86,0.00,,,0.00,WUHU216HW,2013-03-19 05:43:00,
2013-03-19 01:49:00,41.5,37.6,29.74,ENE,68,0.0,0.0,86,0.00,,,0.00,WUHU216HW,2013-03-19 05:49:00,
2013-03-19 01:54:00,41.5,37.6,29.73,ENE,68,0.0,0.0,86,0.00,,,0.00,WUHU216HW,2013-03-19 05:54:00,
2013-03-19 01:59:00,41.5,37.6,29.73,ENE,68,0.0,0.0,86,0.00,,,0.00,WUHU216HW,2013-03-19 05:59:00,
2013-03-19 02:04:00,41.5,37.6,29.74,ENE,68,0.0,0.0,86,0.00,,,0.00,WUHU216HW,2013-03-19 06:04:00,
2013-03-19 02:10:00,41.5,37.6,29.73,ENE,68,0.0,0.0,86,0.00,,,0.00,WUHU216HW,2013-03-19 06:10:00,
2013-03-19 02:15:00,41.9,38.2,29.73,ENE,68,0.0,0.0,87,0.00,,,0.00,WUHU216HW,2013-03-19 06:15:00,
2013-03-19 02:20:00,42.0,38.4,29.74,ENE,68,0.0,0.0,87,0.00,,,0.00,WUHU216HW,2013-03-19 06:20:00,
2013-03-19 02:26:00,42.6,39.3,29.74,ENE,68,0.0,0.0,88,0.00,,,0.00,WUHU216HW,2013-03-19 06:26:00,
2013-03-19 02:32:00,42.9,39.6,29.74,ENE,68,0.0,0.0,88,0.00,,,0.00,WUHU216HW,2013-03-19 06:32:00,
2013-03-19 02:37:00,43.1,39.8,29.75,West,270,0.0,0.0,88,0.00,,,0.00,WUHU216HW,2013-03-19 06:37:00,
2013-03-19 02:43:00,43.5,40.5,29.75,West,270,0.0,0.0,89,0.00,,,0.00,WUHU216HW,2013-03-19 06:43:00,
2013-03-19 02:48:00,44.0,41.0,29.75,West,270,4.9,4.9,89,0.00,,,0.00,WUHU216HW,2013-03-19 06:48:00,
2013-03-19 02:53:00,44.4,41.7,29.75,WNW,293,0.0,4.9,90,0.00,,,0.00,WUHU216HW,2013-03-19 06:53:00,
2013-03-19 02:58:00,44.6,41.9,29.75,WNW,293,0.0,4.9,90,0.02,,,0.02,WUHU216HW,2013-03-19 06:58:00,
2013-03-19 03:04:00,44.7,42.0,29.75,West,270,0.0,1.5,90,0.02,,,0.02,WUHU216HW,2013-03-19 07:04:00,
2013-03-19 03:10:00,44.9,42.2,29.75,NNW,338,0.0,1.5,90,0.02,,,0.02,WUHU216HW,2013-03-19 07:10:00,
2013-03-19 03:15:00,44.7,42.0,29.76,West,270,0.0,2.9,90,0.02,,,0.02,WUHU216HW,2013-03-19 07:15:00,
2013-03-19 03:21:00,44.4,41.7,29.76,West,270,0.0,2.9,90,0.02,,,0.02,WUHU216HW,2013-03-19 07:21:00,
2013-03-19 03:27:00,44.2,41.5,29.76,West,270,5.3,5.3,90,0.02,,,0.02,WUHU216HW,2013-03-19 07:27:00,
2013-03-19 03:32:00,43.8,41.1,29.76,SSW,203,0.0,5.3,90,0.02,,,0.02,WUHU216HW,2013-03-19 07:32:00,
2013-03-19 03:37:00,43.7,41.0,29.76,West,270,0.0,5.3,90,0.02,,,0.02,WUHU216HW,2013-03-19 07:37:00,
2013-03-19 03:43:00,43.5,40.8,29.77,SW,225,0.0,0.0,90,0.02,,,0.02,WUHU216HW,2013-03-19 07:43:00,
2013-03-19 03:48:00,43.3,40.6,29.77,South,180,0.0,0.0,90,0.02,,,0.02,WUHU216HW,2013-03-19 07:48:00,
2013-03-19 03:59:00,42.9,40.2,29.77,SW,225,0.0,0.0,90,0.00,,,0.02,WUHU216HW,2013-03-19 07:59:00,
2013-03-19 04:04:00,42.8,40.1,29.77,NW,315,0.0,6.9,90,0.00,,,0.02,WUHU216HW,2013-03-19 08:04:00,
2013-03-19 04:09:00,42.6,39.9,29.77,West,270,0.0,6.9,90,0.00,,,0.02,WUHU216HW,2013-03-19 08:09:00,
2013-03-19 04:14:00,42.6,39.9,29.77,NNW,338,3.3,3.3,90,0.00,,,0.02,WUHU216HW,2013-03-19 08:14:00,
2013-03-19 04:19:00,42.4,39.7,29.78,West,270,6.0,13.4,90,0.00,,,0.02,WUHU216HW,2013-03-19 08:19:00,
2013-03-19 04:24:00,42.0,39.3,29.79,NW,315,0.0,13.4,90,0.00,,,0.02,WUHU216HW,2013-03-19 08:24:00,
2013-03-19 04:30:00,41.5,38.8,29.79,West,270,0.0,6.0,90,0.00,,,0.02,WUHU216HW,2013-03-19 08:30:00,
2013-03-19 04:40:00,41.1,38.1,29.79,NNW,338,0.0,1.7,89,0.00,,,0.02,WUHU216HW,2013-03-19 08:40:00,
2013-03-19 04:46:00,41.1,38.4,29.80,WNW,293,6.4,6.4,90,0.00,,,0.02,WUHU216HW,2013-03-19 08:46:00,
2013-03-19 04:57:00,40.6,37.9,29.81,NW,315,0.0,8.0,90,0.00,,,0.02,WUHU216HW,2013-03-19 08:57:00,
2013-03-19 05:03:00,39.9,36.9,29.82,WSW,248,2.4,8.0,89,0.00,,,0.02,WUHU216HW,2013-03-19 09:03:00,
2013-03-19 05:08:00,39.5,36.5,29.82,NNW,338,6.0,6.0,89,0.00,,,0.02,WUHU216HW,2013-03-19 09:08:00,
2013-03-19 05:13:00,39.0,36.0,29.83,NW,315,0.0,7.1,89,0.00,,,0.02,WUHU216HW,2013-03-19 09:13:00,
2013-03-19 05:18:00,39.0,36.0,29.83,West,270,0.0,7.1,89,0.00,,,0.02,WUHU216HW,2013-03-19 09:18:00,
2013-03-19 05:24:00,38.6,35.3,29.84,NW,315,0.0,6.9,88,0.00,,,0.02,WUHU216HW,2013-03-19 09:24:00,
2013-03-19 05:29:00,38.4,35.2,29.84,WNW,293,2.0,6.9,88,0.00,,,0.02,WUHU216HW,2013-03-19 09:29:00,
2013-03-19 05:35:00,38.4,35.2,29.84,West,270,0.0,3.8,88,0.00,,,0.02,WUHU216HW,2013-03-19 09:35:00,
2013-03-19 05:41:00,38.3,34.7,29.84,NW,315,0.0,7.1,87,0.00,,,0.02,WUHU216HW,2013-03-19 09:41:00,
2013-03-19 05:47:00,38.3,34.7,29.84,WNW,293,4.9,7.1,87,0.00,,,0.02,WUHU216HW,2013-03-19 09:47:00,
2013-03-19 05:53:00,38.1,34.5,29.84,West,270,0.0,7.3,87,0.00,,,0.02,WUHU216HW,2013-03-19 09:53:00,
2013-03-19 05:59:00,38.1,34.5,29.85,West,270,0.0,7.3,87,0.00,,,0.02,WUHU216HW,2013-03-19 09:59:00,
2013-03-19 06:05:00,38.1,34.5,29.85,West,270,0.0,0.0,87,0.00,,,0.02,WUHU216HW,2013-03-19 10:05:00,
2013-03-19 06:11:00,37.9,34.3,29.85,NW,315,0.0,4.0,87,0.00,,,0.02,WUHU216HW,2013-03-19 10:11:00,
2013-03-19 06:16:00,37.9,34.3,29.86,SW,225,0.0,4.0,87,0.00,,,0.02,WUHU216HW,2013-03-19 10:16:00,
2013-03-19 06:22:00,37.9,34.3,29.86,West,270,0.0,0.0,87,0.00,,,0.02,WUHU216HW,2013-03-19 10:22:00,
2013-03-19 06:27:00,37.9,34.0,29.86,West,270,0.0,0.0,86,0.00,,,0.02,WUHU216HW,2013-03-19 10:27:00,
2013-03-19 06:32:00,37.9,34.0,29.86,West,270,0.0,0.0,86,0.00,,,0.02,WUHU216HW,2013-03-19 10:32:00,
2013-03-19 06:37:00,37.9,34.0,29.86,SSW,203,0.0,0.0,86,0.00,,,0.02,WUHU216HW,2013-03-19 10:37:00,
2013-03-19 06:43:00,37.9,34.0,29.86,SSW,203,0.0,0.0,86,0.00,,,0.02,WUHU216HW,2013-03-19 10:43:00,
2013-03-19 06:48:00,37.9,34.0,29.87,WSW,248,0.0,0.0,86,0.00,,,0.02,WUHU216HW,2013-03-19 10:48:00,
2013-03-19 06:54:00,37.9,33.8,29.87,West,270,0.0,0.0,85,0.00,,,0.02,WUHU216HW,2013-03-19 10:54:00,
2013-03-19 06:59:00,37.9,33.8,29.87,WSW,248,3.8,3.8,85,0.00,,,0.02,WUHU216HW,2013-03-19 10:59:00,
2013-03-19 07:04:00,37.7,33.6,29.88,SE,135,0.0,3.8,85,0.00,,,0.02,WUHU216HW,2013-03-19 11:04:00,
2013-03-19 07:10:00,37.7,33.3,29.88,West,270,0.0,3.8,84,0.00,,,0.02,WUHU216HW,2013-03-19 11:10:00,
2013-03-19 07:16:00,37.7,33.3,29.88,South,180,0.0,0.0,84,0.00,,,0.02,WUHU216HW,2013-03-19 11:16:00,
2013-03-19 07:21:00,37.5,33.1,29.88,WSW,248,0.0,0.0,84,0.00,,,0.02,WUHU216HW,2013-03-19 11:21:00,
2013-03-19 07:26:00,37.5,33.4,29.88,WSW,248,0.0,0.0,85,0.00,,,0.02,WUHU216HW,2013-03-19 11:26:00,
2013-03-19 07:31:00,37.5,33.4,29.88,WSW,248,0.0,0.0,85,0.00,,,0.02,WUHU216HW,2013-03-19 11:31:00,
2013-03-19 07:36:00,37.5,33.4,29.88,SSE,158,0.0,3.5,85,0.00,,,0.02,WUHU216HW,2013-03-19 11:36:00,
2013-03-19 07:41:00,37.4,33.2,29.87,SSE,158,0.0,3.5,85,0.00,,,0.02,WUHU216HW,2013-03-19 11:41:00,
2013-03-19 07:47:00,37.2,32.7,29.88,SW,225,0.0,4.6,84,0.00,,,0.02,WUHU216HW,2013-03-19 11:47:00,
2013-03-19 07:52:00,37.4,32.9,29.87,WNW,293,0.0,4.6,84,0.00,,,0.02,WUHU216HW,2013-03-19 11:52:00,
2013-03-19 07:58:00,37.4,32.9,29.87,South,180,0.0,0.0,84,0.00,,,0.02,WUHU216HW,2013-03-19 11:58:00,
2013-03-19 08:03:00,37.4,32.9,29.87,WSW,248,0.0,0.0,84,0.00,,,0.02,WUHU216HW,2013-03-19 12:03:00,
2013-03-19 08:09:00,37.5,33.1,29.87,South,180,0.0,4.0,84,0.00,,,0.02,WUHU216HW,2013-03-19 12:09:00,
2013-03-19 08:14:00,37.5,33.1,29.87,ENE,68,0.0,4.0,84,0.00,,,0.02,WUHU216HW,2013-03-19 12:14:00,
2013-03-19 08:19:00,37.7,33.0,29.87,SSW,203,0.0,0.0,83,0.00,,,0.02,WUHU216HW,2013-03-19 12:19:00,
2013-03-19 08:25:00,37.7,33.0,29.86,NNW,338,0.0,0.0,83,0.00,,,0.02,WUHU216HW,2013-03-19 12:25:00,
2013-03-19 08:31:00,37.9,32.9,29.87,WSW,248,0.0,0.0,82,0.00,,,0.02,WUHU216HW,2013-03-19 12:31:00,
2013-03-19 08:37:00,38.1,33.1,29.86,SSW,203,0.0,0.0,82,0.00,,,0.02,WUHU216HW,2013-03-19 12:37:00,
2013-03-19 08:42:00,38.3,33.0,29.86,West,270,0.0,4.4,81,0.00,,,0.02,WUHU216HW,2013-03-19 12:42:00,
2013-03-19 08:48:00,38.4,33.1,29.86,West,270,0.0,6.0,81,0.00,,,0.02,WUHU216HW,2013-03-19 12:48:00,
2013-03-19 08:53:00,38.4,32.9,29.86,SW,225,0.0,6.0,80,0.00,,,0.02,WUHU216HW,2013-03-19 12:53:00,
2013-03-19 08:58:00,38.8,33.2,29.85,South,180,0.0,5.3,80,0.00,,,0.02,WUHU216HW,2013-03-19 12:58:00,
2013-03-19 09:04:00,38.8,32.9,29.85,SSE,158,5.1,5.3,79,0.00,,,0.02,WUHU216HW,2013-03-19 13:04:00,
2013-03-19 09:09:00,39.2,33.2,29.84,West,270,0.0,5.1,79,0.00,,,0.02,WUHU216HW,2013-03-19 13:09:00,
2013-03-19 09:14:00,39.3,33.2,29.84,SSE,158,0.0,5.1,78,0.00,,,0.02,WUHU216HW,2013-03-19 13:14:00,
2013-03-19 09:20:00,39.9,33.5,29.84,WNW,293,0.0,0.0,78,0.00,,,0.02,WUHU216HW,2013-03-19 13:20:00,
2013-03-19 09:25:00,40.2,33.5,29.84,East,90,0.0,7.6,77,0.00,,,0.02,WUHU216HW,2013-03-19 13:25:00,
2013-03-19 09:31:00,40.6,33.9,29.84,SSE,158,0.0,7.6,77,0.00,,,0.02,WUHU216HW,2013-03-19 13:31:00,
2013-03-19 09:36:00,40.8,33.7,29.83,WNW,293,0.0,6.4,76,0.00,,,0.02,WUHU216HW,2013-03-19 13:36:00,
2013-03-19 09:42:00,41.3,33.9,29.83,WNW,293,6.9,6.9,75,0.00,,,0.02,WUHU216HW,2013-03-19 13:42:00,
2013-03-19 09:47:00,41.7,34.3,29.83,WNW,293,3.1,6.9,75,0.00,,,0.02,WUHU216HW,2013-03-19 13:47:00,
2013-03-19 09:52:00,42.0,34.3,29.83,NNE,23,0.0,6.9,74,0.00,,,0.02,WUHU216HW,2013-03-19 13:52:00,
2013-03-19 10:02:00,42.6,34.2,29.83,SE,135,0.0,8.7,72,0.00,,,0.02,WUHU216HW,2013-03-19 14:02:00,
2013-03-19 10:07:00,42.9,34.6,29.83,West,270,15.4,15.4,72,0.00,,,0.02,WUHU216HW,2013-03-19 14:07:00,
2013-03-19 10:13:00,43.3,34.6,29.83,NW,315,0.0,15.4,71,0.00,,,0.02,WUHU216HW,2013-03-19 14:13:00,
2013-03-19 10:19:00,43.3,34.6,29.83,NW,315,5.8,5.8,71,0.00,,,0.02,WUHU216HW,2013-03-19 14:19:00,
2013-03-19 10:24:00,43.3,34.2,29.83,WNW,293,0.0,5.8,70,0.00,,,0.02,WUHU216HW,2013-03-19 14:24:00,
2013-03-19 10:29:00,43.7,34.6,29.82,WSW,248,3.5,5.8,70,0.00,,,0.02,WUHU216HW,2013-03-19 14:29:00,
2013-03-19 10:35:00,43.8,34.7,29.82,SSW,203,8.9,8.9,70,0.00,,,0.02,WUHU216HW,2013-03-19 14:35:00,
2013-03-19 10:40:00,44.0,34.5,29.82,NW,315,0.0,8.9,69,0.00,,,0.02,WUHU216HW,2013-03-19 14:40:00,
2013-03-19 10:46:00,44.2,33.9,29.81,SSW,203,0.0,9.8,67,0.00,,,0.02,WUHU216HW,2013-03-19 14:46:00,
2013-03-19 10:57:00,44.4,33.7,29.81,West,270,13.8,13.8,66,0.00,,,0.02,WUHU216HW,2013-03-19 14:57:00,
2013-03-19 11:02:00,44.2,33.1,29.81,WSW,248,2.4,13.8,65,0.00,,,0.02,WUHU216HW,2013-03-19 15:02:00,
2013-03-19 11:07:00,44.0,33.0,29.82,WSW,248,10.2,13.8,65,0.00,,,0.02,WUHU216HW,2013-03-19 15:07:00,
2013-03-19 11:13:00,43.8,32.4,29.82,SW,225,0.0,11.8,64,0.00,,,0.02,WUHU216HW,2013-03-19 15:13:00,
2013-03-19 11:19:00,43.5,32.1,29.82,WNW,293,0.0,7.6,64,0.00,,,0.02,WUHU216HW,2013-03-19 15:19:00,
2013-03-19 11:25:00,43.5,32.1,29.82,WNW,293,12.0,12.0,64,0.00,,,0.02,WUHU216HW,2013-03-19 15:25:00,
2013-03-19 11:30:00,43.7,32.6,29.82,SW,225,15.2,15.2,65,0.00,,,0.02,WUHU216HW,2013-03-19 15:30:00,
2013-03-19 11:36:00,44.4,32.5,29.81,SSW,203,2.4,15.2,63,0.00,,,0.02,WUHU216HW,2013-03-19 15:36:00,
2013-03-19 11:47:00,46.0,34.1,29.81,SSW,203,7.3,13.1,63,0.00,,,0.02,WUHU216HW,2013-03-19 15:47:00,
2013-03-19 11:52:00,46.5,34.2,29.81,NW,315,6.7,7.3,62,0.00,,,0.02,WUHU216HW,2013-03-19 15:52:00,
2013-03-19 11:57:00,46.7,33.9,29.81,SW,225,11.4,11.4,61,0.00,,,0.02,WUHU216HW,2013-03-19 15:57:00,
2013-03-19 12:02:00,46.9,34.1,29.81,WSW,248,0.0,11.4,61,0.00,,,0.02,WUHU216HW,2013-03-19 16:02:00,
2013-03-19 12:07:00,47.1,33.9,29.81,SSW,203,5.3,11.4,60,0.00,,,0.02,WUHU216HW,2013-03-19 16:07:00,
2013-03-19 12:12:00,47.8,34.2,29.81,NW,315,15.2,15.2,59,0.00,,,0.02,WUHU216HW,2013-03-19 16:12:00,
2013-03-19 12:17:00,47.8,33.2,29.81,West,270,0.0,15.2,57,0.00,,,0.02,WUHU216HW,2013-03-19 16:17:00,
2013-03-19 12:22:00,48.0,33.4,29.81,South,180,0.0,15.2,57,0.00,,,0.02,WUHU216HW,2013-03-19 16:22:00,
2013-03-19 12:27:00,48.7,33.2,29.81,SW,225,13.1,16.3,55,0.00,,,0.02,WUHU216HW,2013-03-19 16:27:00,
2013-03-19 12:33:00,49.2,32.9,29.81,WNW,293,6.9,16.3,54,0.00,,,0.02,WUHU216HW,2013-03-19 16:33:00,
2013-03-19 12:39:00,49.4,33.4,29.81,WSW,248,3.1,6.9,54,0.00,,,0.02,WUHU216HW,2013-03-19 16:39:00,
2013-03-19 12:44:00,50.1,33.6,29.80,NNW,338,5.8,17.2,53,0.00,,,0.02,WUHU216HW,2013-03-19 16:44:00,
2013-03-19 12:49:00,50.1,33.2,29.81,South,180,11.8,17.2,52,0.00,,,0.02,WUHU216HW,2013-03-19 16:49:00,
2013-03-19 12:55:00,49.6,31.8,29.81,SSW,203,7.1,11.8,50,0.00,,,0.02,WUHU216HW,2013-03-19 16:55:00,
2013-03-19 13:00:00,49.8,32.4,29.80,SSW,203,10.7,11.8,51,0.00,,,0.02,WUHU216HW,2013-03-19 17:00:00,
2013-03-19 13:05:00,49.8,31.4,29.80,WSW,248,14.9,14.9,49,0.00,,,0.02,WUHU216HW,2013-03-19 17:05:00,
2013-03-19 13:11:00,49.8,32.0,29.81,SSW,203,16.5,16.5,50,0.00,,,0.02,WUHU216HW,2013-03-19 17:11:00,
2013-03-19 13:16:00,49.8,30.3,29.81,SW,225,5.3,16.5,47,0.00,,,0.02,WUHU216HW,2013-03-19 17:16:00,
2013-03-19 13:27:00,48.0,28.0,29.81,SW,225,6.0,21.6,46,0.00,,,0.02,WUHU216HW,2013-03-19 17:27:00,
2013-03-19 13:33:00,47.3,27.9,29.81,WNW,293,8.2,14.5,46,0.00,,,0.02,WUHU216HW,2013-03-19 17:33:00,
2013-03-19 13:38:00,47.1,27.2,29.81,WNW,293,9.6,14.5,46,0.00,,,0.02,WUHU216HW,2013-03-19 17:38:00,
2013-03-19 13:49:00,47.8,28.4,29.81,WNW,293,3.1,10.9,47,0.00,,,0.02,WUHU216HW,2013-03-19 17:49:00,
2013-03-19 13:54:00,48.3,28.9,29.81,WNW,293,6.7,8.5,47,0.00,,,0.02,WUHU216HW,2013-03-19 17:54:00,
2013-03-19 13:59:00,48.9,29.4,29.81,West,270,10.7,10.7,47,0.00,,,0.02,WUHU216HW,2013-03-19 17:59:00,
2013-03-19 14:04:00,48.9,28.9,29.81,SSW,203,16.7,16.7,46,0.00,,,0.02,WUHU216HW,2013-03-19 18:04:00,
2013-03-19 14:10:00,48.7,28.7,29.81,WNW,293,10.9,16.7,46,0.00,,,0.02,WUHU216HW,2013-03-19 18:10:00,
2013-03-19 14:16:00,48.5,28.0,29.81,West,270,7.6,13.6,45,0.00,,,0.02,WUHU216HW,2013-03-19 18:16:00,
2013-03-19 14:21:00,48.9,28.9,29.81,WNW,293,10.0,13.6,46,0.00,,,0.02,WUHU216HW,2013-03-19 18:21:00,
2013-03-19 14:26:00,49.2,28.1,29.81,SW,225,10.5,10.5,44,0.00,,,0.02,WUHU216HW,2013-03-19 18:26:00,
2013-03-19 14:32:00,49.1,26.3,29.82,West,270,6.7,10.5,41,0.00,,,0.02,WUHU216HW,2013-03-19 18:32:00,
2013-03-19 14:42:00,48.7,25.4,29.82,NW,315,21.4,21.4,40,0.00,,,0.02,WUHU216HW,2013-03-19 18:42:00,
2013-03-19 14:48:00,48.7,25.4,29.82,WSW,248,14.3,21.4,40,0.00,,,0.02,WUHU216HW,2013-03-19 18:48:00,
2013-03-19 14:54:00,48.5,24.6,29.82,NNW,338,2.6,16.7,39,0.02,,,0.04,WUHU216HW,2013-03-19 18:54:00,
2013-03-19 15:00:00,48.7,26.5,29.82,SSW,203,6.0,16.7,42,0.02,,,0.04,WUHU216HW,2013-03-19 19:00:00,
2013-03-19 15:05:00,48.7,27.6,29.82,NW,315,6.0,8.7,44,0.02,,,0.04,WUHU216HW,2013-03-19 19:05:00,
2013-03-19 15:10:00,48.3,26.7,29.83,SW,225,1.7,9.1,43,0.02,,,0.04,WUHU216HW,2013-03-19 19:10:00,
2013-03-19 15:16:00,48.0,26.4,29.83,WSW,248,2.9,9.1,43,0.02,,,0.04,WUHU216HW,2013-03-19 19:16:00,
2013-03-19 15:22:00,47.6,25.5,29.83,WSW,248,6.4,18.3,42,0.02,,,0.04,WUHU216HW,2013-03-19 19:22:00,
2013-03-19 15:27:00,47.4,25.4,29.83,WSW,248,10.2,18.3,42,0.02,,,0.04,WUHU216HW,2013-03-19 19:27:00,
2013-03-19 15:33:00,47.1,24.5,29.83,WSW,248,8.2,10.2,41,0.02,,,0.04,WUHU216HW,2013-03-19 19:33:00,
2013-03-19 15:38:00,46.9,24.9,29.83,WSW,248,17.8,17.8,42,0.02,,,0.04,WUHU216HW,2013-03-19 19:38:00,
2013-03-19 15:44:00,46.7,25.3,29.84,WSW,248,5.1,17.8,43,0.02,,,0.04,WUHU216HW,2013-03-19 19:44:00,
2013-03-19 15:49:00,46.9,26.0,29.85,WSW,248,5.3,17.8,44,0.02,,,0.04,WUHU216HW,2013-03-19 19:49:00,
2013-03-19 15:55:00,46.7,25.8,29.85,WSW,248,10.9,10.9,44,0.00,,,0.04,WUHU216HW,2013-03-19 19:55:00,
2013-03-19 16:00:00,46.2,25.3,29.86,WSW,248,13.6,13.6,44,0.00,,,0.04,WUHU216HW,2013-03-19 20:00:00,
2013-03-19 16:06:00,45.8,25.0,29.86,WSW,248,5.3,13.6,44,0.00,,,0.04,WUHU216HW,2013-03-19 20:06:00,
2013-03-19 16:17:00,45.1,24.9,29.87,WNW,293,4.9,17.6,45,0.00,,,0.04,WUHU216HW,2013-03-19 20:17:00,
2013-03-19 16:23:00,44.7,24.6,29.87,WSW,248,6.0,17.6,45,0.00,,,0.04,WUHU216HW,2013-03-19 20:23:00,
2013-03-19 16:28:00,44.4,24.2,29.87,West,270,6.4,14.7,45,0.00,,,0.04,WUHU216HW,2013-03-19 20:28:00,
2013-03-19 16:33:00,44.4,24.2,29.87,WSW,248,5.8,6.9,45,0.00,,,0.04,WUHU216HW,2013-03-19 20:33:00,
2013-03-19 16:38:00,44.2,23.5,29.88,WSW,248,14.0,14.0,44,0.00,,,0.04,WUHU216HW,2013-03-19 20:38:00,
2013-03-19 16:43:00,44.4,23.7,29.88,WSW,248,12.7,14.0,44,0.00,,,0.04,WUHU216HW,2013-03-19 20:43:00,
2013-03-19 16:49:00,44.6,23.3,29.89,WSW,248,8.7,14.0,43,0.00,,,0.04,WUHU216HW,2013-03-19 20:49:00,
2013-03-19 16:54:00,44.7,24.0,29.89,West,270,14.5,14.5,44,0.00,,,0.04,WUHU216HW,2013-03-19 20:54:00,
2013-03-19 16:59:00,44.4,23.7,29.89,WSW,248,4.2,14.5,44,0.00,,,0.04,WUHU216HW,2013-03-19 20:59:00,
2013-03-19 17:04:00,44.4,23.7,29.89,NNW,338,0.0,14.5,44,0.00,,,0.04,WUHU216HW,2013-03-19 21:04:00,
2013-03-19 17:10:00,44.4,23.7,29.89,WSW,248,11.1,11.1,44,0.00,,,0.04,WUHU216HW,2013-03-19 21:10:00,
2013-03-19 17:16:00,43.8,23.5,29.89,SW,225,8.2,16.7,44,0.00,,,0.04,WUHU216HW,2013-03-19 21:16:00,
2013-03-19 17:21:00,43.3,22.7,29.89,NW,315,6.0,16.7,44,0.00,,,0.04,WUHU216HW,2013-03-19 21:21:00,
2013-03-19 17:32:00,42.4,22.4,29.90,WNW,293,7.3,12.9,45,0.00,,,0.04,WUHU216HW,2013-03-19 21:32:00,
2013-03-19 17:37:00,42.2,22.8,29.90,North,0,0.0,12.0,46,0.00,,,0.04,WUHU216HW,2013-03-19 21:37:00,
2013-03-19 17:43:00,42.0,23.1,29.90,NW,315,3.5,10.0,47,0.00,,,0.04,WUHU216HW,2013-03-19 21:43:00,
2013-03-19 17:49:00,41.7,22.8,29.90,North,0,4.2,16.1,47,0.00,,,0.04,WUHU216HW,2013-03-19 21:49:00,
2013-03-19 17:54:00,41.7,23.3,29.91,NW,315,9.1,16.1,48,0.00,,,0.04,WUHU216HW,2013-03-19 21:54:00,
2013-03-19 17:59:00,41.5,23.1,29.91,NW,315,13.8,13.8,48,0.00,,,0.04,WUHU216HW,2013-03-19 21:59:00,
2013-03-19 18:05:00,41.1,22.8,29.91,NNW,338,5.5,13.8,48,0.00,,,0.04,WUHU216HW,2013-03-19 22:05:00,
2013-03-19 18:10:00,40.8,22.5,29.91,NW,315,9.1,13.1,48,0.00,,,0.04,WUHU216HW,2013-03-19 22:10:00,
2013-03-19 18:16:00,40.4,22.7,29.92,West,270,7.6,13.1,48,0.00,,,0.04,WUHU216HW,2013-03-19 22:16:00,
2013-03-19 18:22:00,40.1,22.3,29.93,NW,315,7.6,7.6,49,0.00,,,0.04,WUHU216HW,2013-03-19 22:22:00,
2013-03-19 18:27:00,39.7,22.5,29.92,West,270,5.8,7.6,50,0.00,,,0.04,WUHU216HW,2013-03-19 22:27:00,
2013-03-19 18:33:00,39.5,22.4,29.92,NW,315,9.1,9.1,51,0.00,,,0.04,WUHU216HW,2013-03-19 22:33:00,
2013-03-19 18:38:00,39.3,22.6,29.92,West,270,7.1,9.1,51,0.00,,,0.04,WUHU216HW,2013-03-19 22:38:00,
2013-03-19 18:44:00,39.0,22.3,29.93,NW,315,13.1,13.1,51,0.00,,,0.04,WUHU216HW,2013-03-19 22:44:00,
2013-03-19 18:55:00,38.4,22.7,29.94,NNE,23,6.4,13.1,53,0.00,,,0.04,WUHU216HW,2013-03-19 22:55:00,
2013-03-19 19:00:00,38.3,22.5,29.93,NW,315,5.5,10.5,53,0.00,,,0.04,WUHU216HW,2013-03-19 23:00:00,
2013-03-19 19:05:00,38.1,22.4,29.94,WSW,248,0.0,7.6,53,0.00,,,0.04,WUHU216HW,2013-03-19 23:05:00,
2013-03-19 19:10:00,37.9,22.6,29.94,NW,315,7.8,10.9,54,0.00,,,0.04,WUHU216HW,2013-03-19 23:10:00,
2013-03-19 19:16:00,37.5,22.3,29.94,NW,315,10.2,10.9,54,0.00,,,0.04,WUHU216HW,2013-03-19 23:16:00,
2013-03-19 19:22:00,37.4,22.6,29.94,WNW,293,10.0,10.2,55,0.00,,,0.04,WUHU216HW,2013-03-19 23:22:00,
2013-03-19 19:28:00,37.2,22.4,29.94,WSW,248,0.0,10.2,55,0.00,,,0.04,WUHU216HW,2013-03-19 23:28:00,
2013-03-19 19:34:00,37.2,22.4,29.94,NE,45,7.3,7.3,55,0.00,,,0.04,WUHU216HW,2013-03-19 23:34:00,
2013-03-19 19:39:00,37.0,22.3,29.94,SSW,203,0.0,7.3,55,0.00,,,0.04,WUHU216HW,2013-03-19 23:39:00,
2013-03-19 19:44:00,37.0,22.3,29.94,WSW,248,6.0,7.3,55,0.00,,,0.04,WUHU216HW,2013-03-19 23:44:00,
2013-03-19 19:49:00,37.0,22.3,29.94,SW,225,0.2,6.0,55,0.00,,,0.04,WUHU216HW,2013-03-19 23:49:00,
2013-03-19 19:54:00,36.8,22.1,29.95,WNW,293,3.5,6.0,55,0.00,,,0.04,WUHU216HW,2013-03-19 23:54:00,
2013-03-19 19:59:00,36.8,22.1,29.95,West,270,4.2,12.7,55,0.00,,,0.04,WUHU216HW,2013-03-19 23:59:00,
2013-03-19 20:05:00,36.6,21.9,29.95,West,270,10.0,12.7,55,0.00,,,0.04,WUHU216HW,2013-03-20 00:05:00,
2013-03-19 20:10:00,36.6,21.9,29.95,West,270,4.0,10.0,55,0.00,,,0.04,WUHU216HW,2013-03-20 00:10:00,
2013-03-19 20:16:00,36.6,21.9,29.95,NNW,338,0.0,10.0,55,0.00,,,0.04,WUHU216HW,2013-03-20 00:16:00,
2013-03-19 20:21:00,36.5,21.8,29.95,WSW,248,0.0,4.6,55,0.00,,,0.04,WUHU216HW,2013-03-20 00:21:00,
2013-03-19 20:32:00,36.3,21.6,29.96,NNW,338,4.4,11.8,55,0.00,,,0.04,WUHU216HW,2013-03-20 00:32:00,
2013-03-19 20:37:00,36.3,21.6,29.96,NW,315,2.2,11.8,55,0.00,,,0.04,WUHU216HW,2013-03-20 00:37:00,
2013-03-19 20:43:00,36.1,21.5,29.96,SW,225,4.6,11.1,55,0.00,,,0.04,WUHU216HW,2013-03-20 00:43:00,
2013-03-19 20:49:00,36.1,21.5,29.97,SSW,203,2.0,6.9,55,0.00,,,0.04,WUHU216HW,2013-03-20 00:49:00,
2013-03-19 21:00:00,35.7,21.1,29.97,NW,315,0.0,10.7,55,0.00,,,0.04,WUHU216HW,2013-03-20 01:00:00,
2013-03-19 21:05:00,35.7,21.1,29.97,NNW,338,6.4,10.7,55,0.00,,,0.04,WUHU216HW,2013-03-20 01:05:00,
2013-03-19 21:10:00,35.6,21.0,29.97,WNW,293,7.8,7.8,55,0.00,,,0.04,WUHU216HW,2013-03-20 01:10:00,
2013-03-19 21:15:00,35.4,20.8,29.98,West,270,0.0,11.8,55,0.00,,,0.04,WUHU216HW,2013-03-20 01:15:00,
2013-03-19 21:20:00,35.4,20.8,29.98,NNW,338,6.7,11.8,55,0.00,,,0.04,WUHU216HW,2013-03-20 01:20:00,
2013-03-19 21:26:00,35.2,20.6,29.99,NW,315,0.0,8.0,55,0.00,,,0.04,WUHU216HW,2013-03-20 01:26:00,
2013-03-19 21:31:00,34.8,20.3,29.99,WNW,293,5.1,8.0,55,0.00,,,0.04,WUHU216HW,2013-03-20 01:31:00,
2013-03-19 21:36:00,34.5,19.9,29.99,WNW,293,3.3,10.0,55,0.00,,,0.04,WUHU216HW,2013-03-20 01:36:00,
2013-03-19 21:42:00,34.3,20.1,29.99,WNW,293,0.0,10.0,56,0.00,,,0.04,WUHU216HW,2013-03-20 01:42:00,
2013-03-19 21:48:00,34.1,20.0,29.99,WNW,293,2.2,2.2,56,0.00,,,0.04,WUHU216HW,2013-03-20 01:48:00,
2013-03-19 21:58:00,33.6,19.9,29.99,NW,315,10.7,10.7,57,0.00,,,0.04,WUHU216HW,2013-03-20 01:58:00,
2013-03-19 22:04:00,33.6,19.9,30.00,WNW,293,4.6,10.7,57,0.00,,,0.04,WUHU216HW,2013-03-20 02:04:00,
2013-03-19 22:10:00,33.4,19.7,30.00,WNW,293,4.4,5.1,57,0.00,,,0.04,WUHU216HW,2013-03-20 02:10:00,
2013-03-19 22:15:00,33.0,19.8,30.00,NW,315,10.2,10.2,58,0.00,,,0.04,WUHU216HW,2013-03-20 02:15:00,
2013-03-19 22:21:00,32.9,19.7,30.01,West,270,0.0,10.2,58,0.00,,,0.04,WUHU216HW,2013-03-20 02:21:00,
2013-03-19 22:27:00,32.7,19.5,30.00,WNW,293,0.0,4.2,58,0.00,,,0.04,WUHU216HW,2013-03-20 02:27:00,
2013-03-19 22:37:00,32.5,19.8,30.00,WNW,293,6.4,7.6,59,0.00,,,0.04,WUHU216HW,2013-03-20 02:37:00,
2013-03-19 22:43:00,32.5,19.8,30.00,NW,315,0.0,6.7,59,0.00,,,0.04,WUHU216HW,2013-03-20 02:43:00,
2013-03-19 22:49:00,32.1,19.4,30.01,WSW,248,0.0,6.7,59,0.00,,,0.04,WUHU216HW,2013-03-20 02:49:00,
2013-03-19 22:55:00,32.1,19.9,30.01,NW,315,0.0,0.0,60,0.00,,,0.04,WUHU216HW,2013-03-20 02:55:00,
2013-03-19 23:00:00,31.8,19.5,30.01,SW,225,0.0,0.0,60,0.00,,,0.04,WUHU216HW,2013-03-20 03:00:00,
2013-03-19 23:05:00,31.8,19.5,30.00,West,270,0.0,0.0,60,0.00,,,0.04,WUHU216HW,2013-03-20 03:05:00,
2013-03-19 23:11:00,31.6,19.7,30.00,WNW,293,4.4,4.4,61,0.00,,,0.04,WUHU216HW,2013-03-20 03:11:00,
2013-03-19 23:17:00,31.6,19.7,30.01,SSW,203,0.0,6.9,61,0.00,,,0.04,WUHU216HW,2013-03-20 03:17:00,
2013-03-19 23:23:00,31.6,19.7,30.01,West,270,0.0,6.9,61,0.00,,,0.04,WUHU216HW,2013-03-20 03:23:00,
2013-03-19 23:28:00,31.2,19.4,30.01,SSW,203,0.0,0.0,61,0.00,,,0.04,WUHU216HW,2013-03-20 03:28:00,
2013-03-19 23:34:00,31.2,19.4,30.01,SW,225,0.0,0.0,61,0.00,,,0.04,WUHU216HW,2013-03-20 03:34:00,
2013-03-19 23:40:00,30.9,19.0,30.01,SSW,203,0.0,0.0,61,0.00,,,0.04,WUHU216HW,2013-03-20 03:40:00,
2013-03-19 23:45:00,30.7,18.8,30.00,SSW,203,0.0,0.0,61,0.00,,,0.04,WUHU216HW,2013-03-20 03:45:00,
2013-03-19 23:51:00,30.5,19.0,30.01,South,180,0.0,0.0,62,0.00,,,0.04,WUHU216HW,2013-03-20 03:51:00,
2013-03-19 23:56:00,30.3,18.8,30.01,WSW,248,0.0,0.0,62,0.00,,,0.04,WUHU216HW,2013-03-20 03:56:00,